FW3572 Weather Reports


time (UTC)temp
F
wind
direction
speed
knots
gust
knots
rain 1hr
in
rain 24hr
in
rain mn
in
humidity
%
barometer
mb
20260508133116 80 348 2.6 7.8 0.00 0.00 0.00 100 1017.5
20260508132547 79 319 1.7 5.2 0.00 0.00 0.00 100 1017.4
20260508132048 79 286 0.9 3.5 0.00 0.00 0.00 100 1017.4
20260508131548 79 11 0.9 3.5 0.00 0.00 0.00 100 1017.4
20260508131046 78 287 0.0 2.6 0.00 0.00 0.00 100 1017.5
20260508130543 78 265 0.0 2.6 0.00 0.00 0.00 100 1017.3
20260508130043 77 276 0.0 2.6 0.00 0.00 0.00 100 1017.3
20260508125544 77 252 0.0 1.7 0.00 0.00 0.00 100 1017.3
20260508125043 77 250 0.0 2.6 0.00 0.00 0.00 100 1017.4
20260508124543 76 265 0.0 2.6 0.00 0.00 0.00 100 1017.4
20260508124041 76 286 0.0 0.0 0.00 0.00 0.00 100 1017.4
20260508123541 75 295 0.0 0.0 0.00 0.00 0.00 100 1017.3
20260508123055 75 301 0.0 0.0 0.00 0.00 0.00 100 1017.3
20260508122541 75 300 0.0 1.7 0.00 0.00 0.00 100 1017.2
20260508122040 74 302 0.0 1.7 0.00 0.00 0.00 100 1017.2
20260508121540 74 304 0.0 1.7 0.00 0.00 0.00 100 1017.3
20260508121038 74 307 0.0 2.6 0.00 0.00 0.00 100 1017.3
20260508120537 73 306 0.0 2.6 0.00 0.00 0.00 100 1017.2
20260508120037 73 274 0.0 2.6 0.00 0.00 0.00 100 1017.2
20260508115538 72 273 0.0 2.6 0.00 0.00 0.00 100 1017.1
20260508115037 72 309 0.0 2.6 0.00 0.00 0.00 100 1017.0
20260508114536 72 298 0.0 1.7 0.00 0.00 0.00 100 1017.0
20260508114035 72 298 0.0 1.7 0.00 0.00 0.00 100 1016.8
20260508113535 71 296 0.0 2.6 0.00 0.00 0.00 100 1016.8
20260508113043 71 297 0.9 4.3 0.00 0.00 0.00 100 1016.8
20260508112534 71 298 0.9 4.3 0.00 0.00 0.00 100 1016.7
20260508112033 71 277 0.0 1.7 0.00 0.00 0.00 100 1016.6
20260508111535 71 277 0.0 1.7 0.00 0.00 0.00 100 1016.5
20260508111032 71 277 0.0 1.7 0.00 0.00 0.00 100 1016.5
20260508110531 70 277 0.0 0.9 0.00 0.00 0.00 100 1016.4
20260508110047 70 274 0.0 0.0 0.00 0.00 0.00 100 1016.3
20260508105530 70 275 0.0 0.0 0.00 0.00 0.00 100 1016.2
20260508105033 70 257 0.0 0.0 0.00 0.00 0.00 100 1016.2
20260508104530 70 250 0.0 0.0 0.00 0.00 0.00 100 1016.1
20260508104030 70 250 0.0 0.0 0.00 0.00 0.00 100 1016.1
20260508103530 70 248 0.0 0.0 0.00 0.00 0.00 100 1016.0
20260508103029 70 248 0.0 0.0 0.00 0.00 0.00 100 1015.8
20260508102530 70 248 0.0 0.0 0.00 0.00 0.00 100 1015.7
20260508102031 70 247 0.0 0.0 0.00 0.00 0.00 100 1015.6
20260508101530 70 246 0.0 0.0 0.00 0.00 0.00 100 1015.6
20260508101029 70 246 0.0 0.0 0.00 0.00 0.00 100 1015.5
20260508100529 70 246 0.0 0.0 0.00 0.00 0.00 100 1015.4
20260508100031 70 245 0.0 0.9 0.00 0.00 0.00 100 1015.4
20260508095529 70 245 0.0 0.9 0.00 0.00 0.00 100 1015.4
20260508095029 70 243 0.0 0.0 0.00 0.00 0.00 100 1015.3
20260508094528 70 243 0.0 0.0 0.00 0.00 0.00 100 1015.4
20260508094028 70 243 0.0 0.0 0.00 0.00 0.00 100 1015.3
20260508093529 70 243 0.0 0.0 0.00 0.00 0.00 100 1015.3
20260508093035 69 243 0.0 0.0 0.00 0.00 0.00 100 1015.4
20260508092529 69 243 0.0 2.6 0.00 0.00 0.00 100 1015.2
20260508092028 69 243 0.9 2.6 0.00 0.00 0.00 100 1015.3
20260508091529 69 243 0.9 2.6 0.00 0.00 0.00 100 1015.3
20260508091027 70 243 0.9 2.6 0.00 0.00 0.00 100 1015.3
20260508090527 70 241 0.0 0.0 0.00 0.00 0.00 100 1015.3
20260508090029 70 242 0.0 0.0 0.00 0.00 0.00 100 1015.2
20260508085526 70 242 0.0 0.0 0.00 0.00 0.00 100 1015.2
20260508085025 70 242 0.0 0.0 0.00 0.00 0.00 100 1015.3
20260508084526 70 241 0.0 0.0 0.00 0.00 0.00 100 1015.2
20260508084025 70 241 0.0 0.0 0.00 0.00 0.00 100 1015.2
20260508083524 70 241 0.0 0.0 0.00 0.00 0.00 100 1015.2
20260508083025 70 242 0.0 0.0 0.00 0.00 0.00 100 1015.2
20260508082527 70 241 0.0 0.0 0.00 0.00 0.00 100 1015.1
20260508082025 70 241 0.0 0.0 0.00 0.00 0.00 100 1015.2
20260508081523 70 240 0.0 0.0 0.00 0.00 0.00 100 1015.2
20260508081026 70 240 0.0 0.0 0.00 0.00 0.00 100 1015.2
20260508080526 71 240 0.0 1.7 0.00 0.00 0.00 100 1015.1
20260508080021 71 240 0.0 1.7 0.00 0.00 0.00 100 1015.3
20260508075523 71 240 0.0 1.7 0.00 0.00 0.00 100 1015.3
20260508075020 71 240 0.0 4.3 0.00 0.00 0.00 100 1015.3
20260508074522 71 240 1.7 4.3 0.00 0.00 0.00 100 1015.3
20260508074019 71 242 0.0 0.0 0.00 0.00 0.00 100 1015.3
20260508073519 71 242 0.0 0.0 0.00 0.00 0.00 100 1015.4
20260508073019 71 242 0.0 0.0 0.00 0.00 0.00 100 1015.3
20260508072518 72 242 0.0 0.0 0.00 0.00 0.00 100 1015.3
20260508072020 72 242 0.0 2.6 0.00 0.00 0.00 100 1015.3
20260508071520 72 241 0.9 2.6 0.00 0.00 0.00 100 1015.3
20260508071016 72 242 0.0 3.5 0.00 0.00 0.00 100 1015.4
20260508070516 72 240 0.0 3.5 0.00 0.00 0.00 100 1015.4
20260508070015 72 240 0.9 2.6 0.00 0.00 0.00 100 1015.4
20260508065518 72 240 0.0 2.6 0.00 0.00 0.00 100 1015.4
20260508065015 73 240 0.0 3.5 0.00 0.00 0.00 100 1015.4
20260508064515 73 240 0.0 0.0 0.00 0.00 0.00 100 1015.4
20260508064012 73 239 0.0 0.0 0.00 0.00 0.00 100 1015.6
20260508063512 73 240 0.0 0.0 0.00 0.00 0.00 100 1015.7
20260508063011 73 240 0.0 0.0 0.00 0.00 0.00 100 1015.6
20260508062510 73 240 0.0 0.0 0.00 0.00 0.00 100 1015.8
20260508062009 73 240 0.0 0.0 0.00 0.00 0.00 100 1015.7
20260508061510 74 239 0.0 0.0 0.00 0.00 0.00 100 1015.8
20260508061014 74 240 0.0 3.5 0.00 0.00 0.00 100 1015.8
20260508060508 74 239 0.0 3.5 0.00 0.00 0.00 100 1015.8
20260508060009 74 239 0.9 4.3 0.00 0.00 0.00 100 1016.0
20260508055508 74 240 0.9 3.5 0.00 0.00 0.00 100 1016.0
20260508055006 74 240 0.0 3.5 0.00 0.00 0.00 100 1016.1
20260508054506 74 235 0.9 4.3 0.00 0.00 0.00 100 1016.1
20260508054005 74 234 0.9 4.3 0.00 0.00 0.00 100 1016.1
20260508053504 74 234 0.9 3.5 0.00 0.00 0.00 100 1016.2
20260508053005 75 234 0.0 3.5 0.00 0.00 0.00 100 1016.2
20260508052505 75 234 0.0 3.5 0.00 0.00 0.00 100 1016.1
20260508052004 75 232 0.0 4.3 0.00 0.00 0.00 100 1016.2
20260508051504 75 240 0.9 4.3 0.00 0.00 0.00 100 1016.1
20260508051005 75 229 0.9 4.3 0.00 0.00 0.00 100 1016.0
20260508050505 75 240 0.9 4.3 0.00 0.00 0.00 100 1016.1
20260508050002 75 234 1.7 4.3 0.00 0.00 0.00 100 1016.1
20260508045502 75 213 0.9 3.5 0.00 0.00 0.00 100 1016.1
20260508045001 75 217 1.7 4.3 0.00 0.00 0.00 100 1016.2
20260508044602 75 246 0.9 4.3 0.00 0.00 0.00 100 1016.4
20260508044059 75 229 1.7 3.5 0.00 0.00 0.00 100 1016.2
20260508043601 75 237 0.9 3.5 0.00 0.00 0.00 100 1015.9
20260508043104 76 220 0.9 3.5 0.00 0.00 0.00 100 1015.9
20260508042558 76 228 1.7 3.5 0.00 0.00 0.00 100 1015.8
20260508042056 76 225 0.9 7.0 0.00 0.00 0.00 100 1015.8
20260508041616 76 234 0.9 3.5 0.00 0.00 0.00 100 1015.8
20260508041058 76 238 1.7 3.5 0.00 0.00 0.00 100 1015.8
20260508040555 76 241 0.9 3.5 0.00 0.00 0.00 100 1015.8
20260508040109 77 229 0.0 2.6 0.00 0.00 0.00 100 1015.8
20260508035554 77 229 0.9 3.5 0.00 0.00 0.00 100 1015.9
20260508035053 77 229 0.0 3.5 0.00 0.00 0.00 100 1015.9
20260508034553 77 216 0.9 3.5 0.00 0.00 0.00 100 1015.8
20260508034056 77 215 1.7 3.5 0.00 0.00 0.00 100 1015.8
20260508033553 77 229 0.9 3.5 0.00 0.00 0.00 100 1016.0
20260508033052 77 209 1.7 4.3 0.00 0.00 0.00 100 1015.9
20260508032554 78 214 0.9 3.5 0.00 0.00 0.00 100 1016.0
20260508032054 78 219 0.9 3.5 0.00 0.00 0.00 100 1015.8
20260508031556 78 240 0.9 4.3 0.00 0.00 0.00 100 1015.8
20260508031054 78 243 0.9 4.3 0.00 0.00 0.00 100 1015.7
20260508030551 78 240 1.7 3.5 0.00 0.00 0.00 100 1015.7
20260508030051 78 239 0.9 4.3 0.00 0.00 0.00 100 1015.7
20260508025550 78 214 1.7 4.3 0.00 0.00 0.00 100 1015.7
20260508025053 78 198 1.7 5.2 0.00 0.00 0.00 100 1015.6
20260508024604 79 172 1.7 5.2 0.00 0.00 0.00 100 1015.6
20260508024052 79 242 0.9 3.5 0.00 0.00 0.00 100 1015.6
20260508023550 79 182 1.7 3.5 0.00 0.00 0.00 100 1015.6
20260508023051 79 210 0.9 3.5 0.00 0.00 0.00 100 1015.7
20260508022553 79 192 0.9 5.2 0.00 0.00 0.00 100 1015.6
20260508022050 79 200 1.7 5.2 0.00 0.00 0.00 100 1015.5
20260508021550 80 191 0.9 3.5 0.00 0.00 0.00 100 1015.4
20260508021048 80 181 1.7 3.5 0.00 0.00 0.00 100 1015.4
20260508020550 80 193 1.7 6.1 0.00 0.00 0.00 100 1015.3
20260508020052 80 166 2.6 6.1 0.00 0.00 0.00 100 1015.2
20260508015549 80 163 3.5 7.8 0.00 0.00 0.00 100 1015.2
20260508015048 80 140 4.3 8.7 0.00 0.00 0.00 100 1015.2
20260508014548 80 159 3.5 9.6 0.00 0.00 0.00 100 1015.1
20260508014051 80 157 4.3 9.6 0.00 0.00 0.00 100 1015.1
20260508013548 80 163 2.6 8.7 0.00 0.00 0.00 100 1015.2
20260508013051 80 173 4.3 7.8 0.00 0.00 0.00 100 1015.1
20260508012551 80 159 0.9 9.6 0.00 0.00 0.00 100 1015.1
20260508012048 80 148 3.5 10.4 0.00 0.00 0.00 100 1015.1
20260508011555 80 187 6.1 10.4 0.00 0.00 0.00 100 1015.0
20260508011046 80 150 3.5 7.8 0.00 0.00 0.00 100 1015.0
20260508010548 80 165 3.5 9.6 0.00 0.00 0.00 100 1015.0
20260508010047 80 126 4.3 9.6 0.00 0.00 0.00 100 1015.0
20260508005549 80 198 3.5 10.4 0.00 0.00 0.00 100 1014.9
20260508005046 80 163 7.0 10.4 0.00 0.00 0.00 100 1014.9
20260508004549 80 163 4.3 9.6 0.00 0.00 0.00 100 1014.9
20260508004046 80 163 4.3 10.4 0.00 0.00 0.00 100 1014.8
20260508003545 80 160 3.5 10.4 0.00 0.00 0.00 100 1014.8
20260508003045 81 177 0.9 9.6 0.00 0.00 0.00 100 1014.8
20260508002548 80 180 4.3 11.3 0.00 0.00 0.00 100 1014.9
20260508002049 81 157 4.3 11.3 0.00 0.00 0.00 100 1015.0
20260508001548 81 163 4.3 12.2 0.00 0.00 0.00 100 1014.9
20260508001045 80 184 6.1 12.2 0.00 0.00 0.00 100 1014.9
20260508000545 80 150 6.1 12.2 0.00 0.00 0.00 100 1014.9
20260508000044 81 144 4.3 12.2 0.00 0.00 0.00 100 1015.0
20260507235544 81 150 4.3 11.3 0.00 0.00 0.00 100 1014.8
20260507235045 81 173 7.8 11.3 0.00 0.00 0.00 100 1014.8
20260507234646 81 161 4.3 13.9 0.00 0.00 0.00 100 1014.8
20260507234043 81 159 6.1 13.0 0.00 0.00 0.00 100 1014.8
20260507233543 81 165 6.1 13.0 0.00 0.00 0.00 100 1014.8
20260507233056 81 162 4.3 13.0 0.00 0.00 0.00 100 1014.7
20260507232543 81 175 4.3 13.0 0.00 0.00 0.00 100 1014.7
20260507232042 81 161 5.2 13.0 0.00 0.00 0.00 100 1014.8
20260507231543 81 168 6.1 13.9 0.00 0.00 0.00 100 1014.7
20260507231042 81 122 7.8 13.9 0.00 0.00 0.00 100 1014.7
20260507230544 81 118 5.2 12.2 0.00 0.00 0.00 100 1014.7
20260507230043 82 102 5.2 10.4 0.00 0.00 0.00 100 1014.8
20260507225542 82 145 4.3 12.2 0.00 0.00 0.00 100 1014.7
20260507225045 81 159 7.8 14.8 0.00 0.00 0.00 100 1014.7
20260507224553 82 157 8.7 14.8 0.00 0.00 0.00 100 1014.6
20260507224043 82 184 4.3 13.0 0.00 0.00 0.00 100 1014.7
20260507223546 82 126 5.2 11.3 0.00 0.00 0.00 100 1014.6
20260507223042 82 105 6.1 10.4 0.00 0.00 0.00 100 1014.6
20260507222542 82 148 5.2 13.9 0.00 0.00 0.00 100 1014.5
20260507222040 82 136 6.1 13.9 0.00 0.00 0.00 100 1014.6
20260507221542 82 163 7.8 13.0 0.00 0.00 0.00 100 1014.5
20260507221042 82 171 5.2 13.9 0.00 0.00 0.00 100 1014.5
20260507220539 82 134 6.1 13.9 0.00 0.00 0.00 100 1014.7
20260507220039 83 113 4.3 10.4 0.00 0.00 0.00 100 1014.6
20260507215541 83 150 6.1 11.3 0.00 0.00 0.00 100 1014.8
20260507215039 83 141 5.2 11.3 0.00 0.00 0.00 100 1014.7
20260507214540 83 109 3.5 11.3 0.00 0.00 0.00 100 1014.6
20260507214038 83 151 4.3 12.2 0.00 0.00 0.00 100 1014.7
20260507213539 82 137 7.0 12.2 0.00 0.00 0.00 100 1014.6
20260507213041 83 152 7.0 10.4 0.00 0.00 0.00 100 1014.6
20260507212541 83 164 5.2 13.0 0.00 0.00 0.00 100 1014.6
20260507212036 83 128 4.3 13.0 0.00 0.00 0.00 100 1014.6
20260507211537 83 136 4.3 12.2 0.00 0.00 0.00 100 1014.8
20260507211036 84 137 3.5 10.4 0.00 0.00 0.00 100 1014.8
20260507210535 84 121 1.7 10.4 0.00 0.00 0.00 100 1014.9
20260507210043 83 123 4.3 10.4 0.00 0.00 0.00 100 1014.8
20260507205534 83 137 3.5 10.4 0.00 0.00 0.00 100 1015.0
20260507205035 83 158 4.3 12.2 0.00 0.00 0.00 100 1015.0
20260507204533 83 114 4.3 12.2 0.00 0.00 0.00 100 1015.0
20260507204035 83 88 4.3 12.2 0.00 0.00 0.00 100 1015.0
20260507203532 83 147 5.2 11.3 0.00 0.00 0.00 100 1015.1
20260507203036 83 124 4.3 10.4 0.00 0.00 0.00 100 1015.1
20260507202531 83 110 4.3 10.4 0.00 0.00 0.00 100 1015.2
20260507202034 84 112 3.5 10.4 0.00 0.00 0.00 100 1015.3
20260507201531 84 121 5.2 10.4 0.00 0.00 0.00 100 1015.1
20260507201034 84 99 3.5 11.3 0.00 0.00 0.00 100 1015.1
20260507200532 83 146 6.1 11.3 0.00 0.00 0.00 100 1015.1
20260507200030 83 116 5.2 12.2 0.00 0.00 0.00 100 1015.1
20260507195529 84 130 5.2 11.3 0.00 0.00 0.00 100 1015.3
20260507195029 84 161 6.1 10.4 0.00 0.00 0.00 100 1015.3
20260507194550 84 129 6.1 10.4 0.00 0.00 0.00 100 1015.4
20260507194028 85 109 2.6 8.7 0.00 0.00 0.00 100 1015.5
20260507193527 84 140 2.6 8.7 0.00 0.00 0.00 100 1015.6
20260507193029 84 85 1.7 7.8 0.00 0.00 0.00 100 1015.8
20260507192528 85 127 2.6 11.3 0.00 0.00 0.00 100 1015.8
20260507192028 84 106 3.5 12.2 0.00 0.00 0.00 100 1015.6
20260507191533 84 66 3.5 12.2 0.00 0.00 0.00 100 1015.8
20260507191024 84 107 2.6 8.7 0.00 0.00 0.00 100 1015.9
20260507190524 84 152 4.3 8.7 0.00 0.00 0.00 100 1016.0
20260507190024 86 127 0.9 7.0 0.00 0.00 0.00 100 1016.0
20260507185524 86 157 1.7 5.2 0.00 0.00 0.00 100 1016.1
20260507185023 88 73 0.9 9.6 0.00 0.00 0.00 100 1016.1
20260507184528 86 123 1.7 9.6 0.00 0.00 0.00 100 1016.2
20260507184021 86 128 2.6 10.4 0.00 0.00 0.00 100 1016.3
20260507183521 87 167 3.5 10.4 0.00 0.00 0.00 100 1016.4
20260507183033 88 146 4.3 9.6 0.00 0.00 0.00 100 1016.4
20260507182520 87 152 3.5 10.4 0.00 0.00 0.00 100 1016.5
20260507182019 86 141 4.3 10.4 0.00 0.00 0.00 100 1016.6
20260507181520 86 132 2.6 7.8 0.00 0.00 0.00 100 1016.6
20260507181021 87 142 2.6 7.8 0.00 0.00 0.00 100 1016.8
20260507180520 85 123 2.6 8.7 0.00 0.00 0.00 100 1016.8
20260507180029 85 105 4.3 8.7 0.00 0.00 0.00 100 1016.7
20260507175522 85 148 3.5 7.8 0.00 0.00 0.00 100 1016.8
20260507175020 86 119 2.6 8.7 0.00 0.00 0.00 100 1016.8
20260507174518 86 140 4.3 8.7 0.00 0.00 0.00 100 1016.9
20260507174019 85 148 1.7 6.1 0.00 0.00 0.00 100 1016.8
20260507173519 86 76 1.7 7.0 0.00 0.00 0.00 100 1016.8
20260507173028 86 121 4.3 7.0 0.00 0.00 0.00 100 1016.8
20260507172516 88 157 0.9 5.2 0.00 0.00 0.00 100 1016.8
20260507172015 87 269 0.0 6.1 0.00 0.00 0.00 100 1016.8
20260507171531 87 186 0.9 8.7 0.00 0.00 0.00 100 1016.9
20260507171016 87 166 3.5 12.2 0.00 0.00 0.00 100 1016.8
20260507170515 87 157 5.2 11.3 0.00 0.00 0.00 100 1016.9
20260507170014 88 140 3.5 7.0 0.00 0.00 0.00 100 1017.0
20260507165513 89 180 1.7 12.2 0.00 0.00 0.00 100 1017.0
20260507165012 89 175 4.3 12.2 0.00 0.00 0.00 100 1017.0
20260507164512 88 211 2.6 8.7 0.00 0.00 0.00 100 1017.1
20260507164011 88 246 4.3 9.6 0.00 0.00 0.00 100 1017.2
20260507163509 88 230 1.7 9.6 0.00 0.00 0.00 100 1017.2
20260507163010 88 205 4.3 10.4 0.00 0.00 0.00 100 1017.4
20260507162512 88 223 4.3 7.8 0.00 0.00 0.00 100 1017.5
20260507162005 87 147 4.3 7.8 0.00 0.00 0.00 100 1017.5
20260507161503 87 221 1.7 9.6 0.00 0.00 0.00 100 1017.5
20260507161002 87 261 0.9 9.6 0.00 0.00 0.00 100 1017.4
20260507160502 87 180 3.5 7.8 0.00 0.00 0.00 100 1017.5
20260507155558 86 238 1.7 7.8 0.00 0.00 0.00 100 1017.7
20260507155100 86 232 1.7 5.2 0.00 0.00 0.00 100 1017.7
20260507154557 86 175 3.5 6.1 0.00 0.00 0.00 100 1017.7
20260507154055 85 207 0.0 7.0 0.00 0.00 0.00 100 1017.7
20260507153557 85 202 2.6 7.0 0.00 0.00 0.00 100 1017.9
20260507153059 85 172 3.5 8.7 0.00 0.00 0.00 100 1018.0
20260507152554 85 174 3.5 8.7 0.00 0.00 0.00 100 1017.9
20260507152053 83 229 0.0 8.7 0.00 0.00 0.00 100 1018.0
20260507151559 84 238 2.6 8.7 0.00 0.00 0.00 100 1018.1
20260507151054 84 249 1.7 7.8 0.00 0.00 0.00 100 1018.2
20260507150552 84 178 2.6 9.6 0.00 0.00 0.00 100 1018.1
20260507150058 83 214 2.6 7.0 0.00 0.00 0.00 100 1018.1
20260507145551 84 225 1.7 4.3 0.00 0.00 0.00 100 1018.2
20260507145049 83 250 0.9 8.7 0.00 0.00 0.00 100 1018.2
20260507144553 83 233 2.6 8.7 0.00 0.00 0.00 100 1018.2
20260507144050 82 189 1.7 7.0 0.00 0.00 0.00 100 1018.1
20260507143547 82 246 2.6 7.8 0.00 0.00 0.00 100 1018.2
20260507143049 82 200 3.5 10.4 0.00 0.00 0.00 100 1018.3
20260507142547 82 160 0.0 10.4 0.00 0.00 0.00 100 1018.2
20260507142045 81 217 3.5 7.8 0.00 0.00 0.00 100 1018.2
20260507141559 81 237 3.5 9.6 0.00 0.00 0.00 100 1018.1
20260507141048 81 238 2.6 6.1 0.00 0.00 0.00 100 1018.3
20260507140545 81 196 1.7 7.8 0.00 0.00 0.00 100 1018.3
20260507140044 81 232 2.6 7.8 0.00 0.00 0.00 100 1018.3
20260507135544 80 261 1.7 8.7 0.00 0.00 0.00 100 1018.3
20260507135044 80 190 4.3 8.7 0.00 0.00 0.00 100 1018.3
20260507134544 80 231 2.6 7.0 0.00 0.00 0.00 100 1018.4
20260507134041 80 223 2.6 6.1 0.00 0.00 0.00 100 1018.4
20260507133541 80 219 0.9 6.1 0.00 0.00 0.00 100 1018.3